This demonstration page uses our WeatherBlox Daily Observations layout. Learn more.

Left ArrowRight Arrow

Hourly Observations for July 18, 2018

Temp ( °F °C ) Dew Point ( °F °C ) Humidity (%) Winds ( mph kmh ) Pressure ( in mb ) Visibility ( mi km ) Precip ( " mm )
12:51 am 00:51 Clear 82 27.8 55 12.8 40 40 E 8 13 29.86 1011 10 16 N/A
1:51 am 01:51 Clear 78 25.6 57 13.9 48 48 E 8 13 29.88 1012 10 16 N/A
2:51 am 02:51 Clear 78 25.6 57 13.9 48 48 E 6 9 29.88 1012 10 16 N/A
3:51 am 03:51 Clear 74 23.3 60 15.6 62 62 NNW 3 6 29.91 1013 10 16 N/A
4:51 am 04:51 Clear 76 24.4 59 15 56 56 N N/A 29.91 1013 10 16 N/A
5:51 am 05:51 Sunny 74 23.3 61 16.1 64 64 ESE 3 6 29.93 1013 10 16 N/A
6:51 am 06:51 Sunny 79 26.1 59 15 50 50 N N/A 29.93 1014 10 16 N/A
7:51 am 07:51 Sunny 81 27.2 63 17.2 54 54 S 6 9 29.95 1014 10 16 N/A
8:51 am 08:51 Sunny 84 28.9 62 16.7 48 48 VRB 3 6 29.94 1014 10 16 N/A
9:51 am 09:51 Sunny 86 30 61 16.1 43 43 SSW 3 6 29.94 1014 10 16 N/A
10:51 am 10:51 Sunny 92 33.3 59 15 33 33 NW 6 9 29.92 1013 10 16 N/A
11:51 am 11:51 Sunny 95 35 57 13.9 28 28 N N/A 29.89 1012 10 16 N/A
12:51 pm 12:51 Sunny 97 36.1 54 12.2 24 24 S 9 15 29.86 1011 10 16 N/A
1:51 pm 13:51 Sunny 99 37.2 46 7.8 16 16 S 10 17 29.83 1010 10 16 N/A
2:51 pm 14:51 Sunny 99 37.2 47 8.3 17 17 VRB 3 6 29.80 1009 10 16 N/A
3:51 pm 15:51 Sunny 100 37.8 47 8.3 16 16 S 8 13 29.78 1009 10 16 N/A
4:51 pm 16:51 Sunny 101 38.3 48 8.9 17 17 SSW 8 13 29.75 1008 10 16 N/A
5:51 pm 17:51 Sunny 100 37.8 50 10 18 18 WNW 10 17 29.75 1008 10 16 N/A
6:51 pm 18:51 Sunny 96 35.6 58 14.4 28 28 WNW 20 31 29.75 1008 10 16 N/A
7:51 pm 19:51 Clear 92 33.3 60 15.6 34 34 NW 23 37 29.78 1009 10 16 N/A
8:51 pm 20:51 Clear 90 32.2 61 16.1 38 38 WNW 17 28 29.81 1010 10 16 N/A
9:51 pm 21:51 Clear 88 31.1 63 17.2 43 43 NW 18 30 29.84 1010 10 16 N/A
10:51 pm 22:51 Clear 87 30.6 64 17.8 46 46 WNW 15 24 29.83 1010 10 16 N/A
11:19 pm 23:19 Hazy 86 30 64 17.8 48 48 WNW 15 24 29.80 1009 3 5 N/A
11:25 pm 23:25 Hazy 86 30 64 18 49 49 WNW 15 24 29.80 1009 2 3 N/A
11:44 pm 23:44 Hazy 84 29 64 18 51 51 WNW 13 20 29.80 1009 3 5 N/A
11:51 pm 23:51 Hazy 85 29.4 64 17.8 50 50 NW 12 19 29.82 1010 5 8 N/A

Powered by AerisWeather